Year,Month,Day,Hour,Minute,Value (Times are PST for temperature in C)
2011,08,20,00,00,14.40
2011,08,20,00,01,14.40
2011,08,20,00,02,14.30
2011,08,20,00,03,14.30
2011,08,20,00,04,14.30
2011,08,20,00,05,14.30
2011,08,20,00,06,14.20
2011,08,20,00,07,14.20
2011,08,20,00,08,14.20
2011,08,20,00,09,14.20
2011,08,20,00,10,14.20
2011,08,20,00,11,14.20
2011,08,20,00,12,14.10
2011,08,20,00,13,14.10
2011,08,20,00,14,14.10
2011,08,20,00,15,14.10
2011,08,20,00,16,14.20
2011,08,20,00,17,14.20
2011,08,20,00,18,14.20
2011,08,20,00,19,14.10
2011,08,20,00,20,14.10
2011,08,20,00,21,14.10
2011,08,20,00,22,14.10
2011,08,20,00,23,14.10
2011,08,20,00,24,14.00
2011,08,20,00,25,14.00
2011,08,20,00,26,14.00
2011,08,20,00,27,14.00
2011,08,20,00,28,14.00
2011,08,20,00,29,14.00
2011,08,20,00,30,14.00
2011,08,20,00,31,14.00
2011,08,20,00,32,13.90
2011,08,20,00,33,13.90
2011,08,20,00,34,13.90
2011,08,20,00,35,13.90
2011,08,20,00,36,13.90
2011,08,20,00,37,13.90
2011,08,20,00,38,13.90
2011,08,20,00,39,13.90
2011,08,20,00,40,13.90
2011,08,20,00,41,13.90
2011,08,20,00,42,13.90
2011,08,20,00,43,13.80
2011,08,20,00,44,13.80
2011,08,20,00,45,13.80
2011,08,20,00,46,13.80
2011,08,20,00,47,13.80
2011,08,20,00,48,13.80
2011,08,20,00,49,13.80
2011,08,20,00,50,13.80
2011,08,20,00,51,13.80
2011,08,20,00,52,13.80
2011,08,20,00,53,13.70
2011,08,20,00,54,13.70
2011,08,20,00,55,13.70
2011,08,20,00,56,13.70
2011,08,20,00,57,13.70
2011,08,20,00,58,13.70
2011,08,20,00,59,13.70
2011,08,20,01,00,13.60
2011,08,20,01,01,13.60
2011,08,20,01,02,13.60
2011,08,20,01,03,13.50
2011,08,20,01,04,13.50
2011,08,20,01,05,13.50
2011,08,20,01,06,13.40
2011,08,20,01,07,13.40
2011,08,20,01,08,13.40
2011,08,20,01,09,13.40
2011,08,20,01,10,13.40
2011,08,20,01,11,13.30
2011,08,20,01,12,13.30
2011,08,20,01,13,13.30
2011,08,20,01,14,13.30
2011,08,20,01,15,13.30
2011,08,20,01,16,13.30
2011,08,20,01,17,13.30
2011,08,20,01,18,13.30
2011,08,20,01,19,13.30
2011,08,20,01,20,13.30
2011,08,20,01,21,13.30
2011,08,20,01,22,13.40
2011,08,20,01,23,13.40
2011,08,20,01,24,13.40
2011,08,20,01,25,13.40
2011,08,20,01,26,13.30
2011,08,20,01,27,13.30
2011,08,20,01,28,13.30
2011,08,20,01,29,13.30
2011,08,20,01,30,13.30
2011,08,20,01,31,13.30
2011,08,20,01,32,13.20
2011,08,20,01,33,13.20
2011,08,20,01,34,13.20
2011,08,20,01,35,13.20
2011,08,20,01,36,13.20
2011,08,20,01,37,13.20
2011,08,20,01,38,13.20
2011,08,20,01,39,13.20
2011,08,20,01,40,13.20
2011,08,20,01,41,13.20
2011,08,20,01,42,13.20
2011,08,20,01,43,13.20
2011,08,20,01,44,13.20
2011,08,20,01,45,13.20
2011,08,20,01,46,13.20
2011,08,20,01,47,13.20
2011,08,20,01,48,13.30
2011,08,20,01,49,13.30
2011,08,20,01,50,13.30
2011,08,20,01,51,13.30
2011,08,20,01,52,13.30
2011,08,20,01,53,13.30
2011,08,20,01,54,13.30
2011,08,20,01,55,13.30
2011,08,20,01,56,13.30
2011,08,20,01,57,13.30
2011,08,20,01,58,13.20
2011,08,20,01,59,13.20
2011,08,20,02,00,13.20
2011,08,20,02,01,13.20
2011,08,20,02,02,13.20
2011,08,20,02,03,13.10
2011,08,20,02,04,13.10
2011,08,20,02,05,13.10
2011,08,20,02,06,13.10
2011,08,20,02,07,13.10
2011,08,20,02,08,13.10
2011,08,20,02,09,13.10
2011,08,20,02,10,13.10
2011,08,20,02,11,13.10
2011,08,20,02,12,13.10
2011,08,20,02,13,13.10
2011,08,20,02,14,13.10
2011,08,20,02,15,13.00
2011,08,20,02,16,13.00
2011,08,20,02,17,13.00
2011,08,20,02,18,13.00
2011,08,20,02,19,13.00
2011,08,20,02,20,13.00
2011,08,20,02,21,13.00
2011,08,20,02,22,13.10
2011,08,20,02,23,13.10
2011,08,20,02,24,13.10
2011,08,20,02,25,13.10
2011,08,20,02,26,13.10
2011,08,20,02,27,13.10
2011,08,20,02,28,13.10
2011,08,20,02,29,13.10
2011,08,20,02,30,13.10
2011,08,20,02,31,13.10
2011,08,20,02,32,13.10
2011,08,20,02,33,13.10
2011,08,20,02,34,13.10
2011,08,20,02,35,13.10
2011,08,20,02,36,13.10
2011,08,20,02,37,13.00
2011,08,20,02,38,13.00
2011,08,20,02,39,12.90
2011,08,20,02,40,12.90
2011,08,20,02,41,12.90
2011,08,20,02,42,12.80
2011,08,20,02,43,12.80
2011,08,20,02,44,12.80
2011,08,20,02,45,12.80
2011,08,20,02,46,12.80
2011,08,20,02,47,12.80
2011,08,20,02,48,12.90
2011,08,20,02,49,12.90
2011,08,20,02,50,12.80
2011,08,20,02,51,12.80
2011,08,20,02,52,12.80
2011,08,20,02,53,12.80
2011,08,20,02,54,12.80
2011,08,20,02,55,12.80
2011,08,20,02,56,12.80
2011,08,20,02,57,12.80
2011,08,20,02,58,12.80
2011,08,20,02,59,12.80
2011,08,20,03,00,12.80
2011,08,20,03,01,12.80
2011,08,20,03,02,12.90
2011,08,20,03,06,12.90
2011,08,20,03,07,12.90
2011,08,20,03,08,12.90
2011,08,20,03,09,12.90
2011,08,20,03,10,12.90
2011,08,20,03,11,12.90
2011,08,20,03,12,13.00
2011,08,20,03,13,13.00
2011,08,20,03,14,13.00
2011,08,20,03,15,13.10
2011,08,20,03,16,13.10
2011,08,20,03,17,13.10
2011,08,20,03,18,13.10
2011,08,20,03,19,13.10
2011,08,20,03,20,13.10
2011,08,20,03,21,13.20
2011,08,20,03,22,13.20
2011,08,20,03,23,13.20
2011,08,20,03,24,13.20
2011,08,20,03,25,13.30
2011,08,20,03,26,13.30
2011,08,20,03,27,13.30
2011,08,20,03,28,13.30
2011,08,20,03,29,13.30
2011,08,20,03,30,13.30
2011,08,20,03,31,13.40
2011,08,20,03,32,13.40
2011,08,20,03,33,13.40
2011,08,20,03,34,13.40
2011,08,20,03,35,13.40
2011,08,20,03,36,13.40
2011,08,20,03,37,13.50
2011,08,20,03,38,13.50
2011,08,20,03,39,13.50
2011,08,20,03,40,13.50
2011,08,20,03,41,13.50
2011,08,20,03,42,13.50
2011,08,20,03,43,13.40
2011,08,20,03,44,13.40
2011,08,20,03,45,13.40
2011,08,20,03,46,13.40
2011,08,20,03,47,13.40
2011,08,20,03,48,13.40
2011,08,20,03,49,13.40
2011,08,20,03,50,13.40
2011,08,20,03,51,13.40
2011,08,20,03,52,13.40
2011,08,20,03,53,13.40
2011,08,20,03,54,13.40
2011,08,20,03,55,13.40
2011,08,20,03,56,13.50
2011,08,20,03,57,13.50
2011,08,20,03,58,13.50
2011,08,20,03,59,13.50
2011,08,20,04,00,13.50
2011,08,20,04,01,13.50
2011,08,20,04,02,13.50
2011,08,20,04,03,13.50
2011,08,20,04,04,13.50
2011,08,20,04,05,13.50
2011,08,20,04,06,13.50
2011,08,20,04,07,13.40
2011,08,20,04,08,13.40
2011,08,20,04,09,13.40
2011,08,20,04,10,13.40
2011,08,20,04,11,13.40
2011,08,20,04,12,13.40
2011,08,20,04,13,13.40
2011,08,20,04,14,13.40
2011,08,20,04,15,13.40
2011,08,20,04,16,13.50
2011,08,20,04,17,13.50
2011,08,20,04,18,13.50
2011,08,20,04,19,13.50
2011,08,20,04,20,13.50
2011,08,20,04,21,13.50
2011,08,20,04,22,13.50
2011,08,20,04,23,13.40
2011,08,20,04,24,13.40
2011,08,20,04,25,13.40
2011,08,20,04,26,13.40
2011,08,20,04,27,13.40
2011,08,20,04,28,13.40
2011,08,20,04,29,13.40
2011,08,20,04,30,13.40
2011,08,20,04,31,13.40
2011,08,20,04,32,13.40
2011,08,20,04,33,13.40
2011,08,20,04,34,13.50
2011,08,20,04,35,13.50
2011,08,20,04,36,13.50
2011,08,20,04,37,13.40
2011,08,20,04,38,13.40
2011,08,20,04,39,13.40
2011,08,20,04,40,13.40
2011,08,20,04,41,13.40
2011,08,20,04,42,13.40
2011,08,20,04,43,13.40
2011,08,20,04,44,13.40
2011,08,20,04,45,13.30
2011,08,20,04,46,13.30
2011,08,20,04,47,13.30
2011,08,20,04,48,13.30
2011,08,20,04,49,13.30
2011,08,20,04,50,13.30
2011,08,20,04,51,13.30
2011,08,20,04,52,13.30
2011,08,20,04,53,13.30
2011,08,20,04,54,13.30
2011,08,20,04,55,13.30
2011,08,20,04,56,13.30
2011,08,20,04,57,13.30
2011,08,20,04,58,13.30
2011,08,20,04,59,13.30
2011,08,20,05,00,13.30
2011,08,20,05,01,13.30
2011,08,20,05,02,13.30
2011,08,20,05,03,13.30
2011,08,20,05,04,13.30
2011,08,20,05,05,13.30
2011,08,20,05,06,13.30
2011,08,20,05,07,13.30
2011,08,20,05,08,13.30
2011,08,20,05,09,13.30
2011,08,20,05,10,13.30
2011,08,20,05,11,13.30
2011,08,20,05,12,13.30
2011,08,20,05,13,13.40
2011,08,20,05,14,13.40
2011,08,20,05,15,13.40
2011,08,20,05,16,13.40
2011,08,20,05,17,13.40
2011,08,20,05,18,13.40
2011,08,20,05,19,13.40
2011,08,20,05,20,13.40
2011,08,20,05,21,13.40
2011,08,20,05,22,13.40
2011,08,20,05,23,13.40
2011,08,20,05,24,13.30
2011,08,20,05,25,13.30
2011,08,20,05,26,13.30
2011,08,20,05,27,13.30
2011,08,20,05,28,13.30
2011,08,20,05,29,13.30
2011,08,20,05,30,13.30
2011,08,20,05,31,13.30
2011,08,20,05,32,13.30
2011,08,20,05,33,13.30
2011,08,20,05,34,13.30
2011,08,20,05,35,13.30
2011,08,20,05,36,13.30
2011,08,20,05,37,13.30
2011,08,20,05,38,13.30
2011,08,20,05,39,13.30
2011,08,20,05,40,13.20
2011,08,20,05,41,13.20
2011,08,20,05,42,13.20
2011,08,20,05,43,13.20
2011,08,20,05,44,13.20
2011,08,20,05,45,13.10
2011,08,20,05,46,13.10
2011,08,20,05,47,13.10
2011,08,20,05,48,13.10
2011,08,20,05,49,13.10
2011,08,20,05,50,13.10
2011,08,20,05,51,13.00
2011,08,20,05,52,13.00
2011,08,20,05,53,13.00
2011,08,20,05,54,12.90
2011,08,20,05,55,12.90
2011,08,20,05,56,12.90
2011,08,20,05,57,12.90
2011,08,20,05,58,12.90
2011,08,20,05,59,12.90
2011,08,20,06,00,12.80
2011,08,20,06,01,12.80
2011,08,20,06,02,12.80
2011,08,20,06,03,12.90
2011,08,20,06,04,12.90
2011,08,20,06,05,12.90
2011,08,20,06,06,12.90
2011,08,20,06,07,12.90
2011,08,20,06,08,12.90
2011,08,20,06,09,12.90
2011,08,20,06,10,12.90
2011,08,20,06,11,13.00
2011,08,20,06,12,13.00
2011,08,20,06,13,13.00
2011,08,20,06,14,13.00
2011,08,20,06,15,13.00
2011,08,20,06,16,13.00
2011,08,20,06,17,13.00
2011,08,20,06,18,13.00
2011,08,20,06,19,13.00
2011,08,20,06,20,13.10
2011,08,20,06,21,13.10
2011,08,20,06,22,13.10
2011,08,20,06,23,13.10
2011,08,20,06,24,13.10
2011,08,20,06,25,13.10
2011,08,20,06,26,13.10
2011,08,20,06,27,13.00
2011,08,20,06,28,13.00
2011,08,20,06,29,13.00
2011,08,20,06,30,13.00
2011,08,20,06,31,13.00
2011,08,20,06,32,12.90
2011,08,20,06,33,12.90
2011,08,20,06,34,12.90
2011,08,20,06,35,12.90
2011,08,20,06,36,12.90
2011,08,20,06,37,12.90
2011,08,20,06,38,12.90
2011,08,20,06,39,12.90
2011,08,20,06,40,13.00
2011,08,20,06,41,13.00
2011,08,20,06,42,13.00
2011,08,20,06,43,13.10
2011,08,20,06,44,13.10
2011,08,20,06,45,13.10
2011,08,20,06,46,13.10
2011,08,20,06,47,13.10
2011,08,20,06,48,13.10
2011,08,20,06,49,13.10
2011,08,20,06,50,13.20
2011,08,20,06,51,13.20
2011,08,20,06,52,13.20
2011,08,20,06,53,13.30
2011,08,20,06,54,13.30
2011,08,20,06,55,13.30
2011,08,20,06,56,13.30
2011,08,20,06,57,13.40
2011,08,20,06,58,13.40
2011,08,20,06,59,13.50
2011,08,20,07,00,13.50
2011,08,20,07,01,13.60
2011,08,20,07,02,13.60
2011,08,20,07,03,13.60
2011,08,20,07,04,13.70
2011,08,20,07,05,13.70
2011,08,20,07,06,13.70
2011,08,20,07,07,13.70
2011,08,20,07,08,13.80
2011,08,20,07,09,13.80
2011,08,20,07,10,13.80
2011,08,20,07,11,13.90
2011,08,20,07,12,13.90
2011,08,20,07,13,14.00
2011,08,20,07,14,14.00
2011,08,20,07,15,14.00
2011,08,20,07,16,14.10
2011,08,20,07,17,14.10
2011,08,20,07,18,14.20
2011,08,20,07,19,14.20
2011,08,20,07,20,14.30
2011,08,20,07,21,14.30
2011,08,20,07,22,14.30
2011,08,20,07,23,14.40
2011,08,20,07,24,14.40
2011,08,20,07,25,14.50
2011,08,20,07,26,14.60
2011,08,20,07,27,14.60
2011,08,20,07,28,14.70
2011,08,20,07,29,14.80
2011,08,20,07,30,14.80
2011,08,20,07,31,14.90
2011,08,20,07,32,15.00
2011,08,20,07,33,15.00
2011,08,20,07,34,15.00
2011,08,20,07,35,15.00
2011,08,20,07,36,15.00
2011,08,20,07,37,15.20
2011,08,20,07,38,15.20
2011,08,20,07,39,15.30
2011,08,20,07,40,15.40
2011,08,20,07,41,15.50
2011,08,20,07,42,15.50
2011,08,20,07,43,15.60
2011,08,20,07,44,15.70
2011,08,20,07,45,15.70
2011,08,20,07,46,15.70
2011,08,20,07,47,15.80
2011,08,20,07,48,15.80
2011,08,20,07,49,15.90
2011,08,20,07,50,15.90
2011,08,20,07,51,16.00
2011,08,20,07,52,16.00
2011,08,20,07,53,16.10
2011,08,20,07,54,16.20
2011,08,20,07,55,16.20
2011,08,20,07,56,16.30
2011,08,20,07,57,16.40
2011,08,20,07,58,16.50
2011,08,20,07,59,16.60
2011,08,20,08,00,16.70
2011,08,20,08,01,16.80
2011,08,20,08,02,16.80
2011,08,20,08,03,16.90
2011,08,20,08,04,17.00
2011,08,20,08,05,17.10
2011,08,20,08,06,17.20
2011,08,20,08,07,17.20
2011,08,20,08,08,17.30
2011,08,20,08,09,17.30
2011,08,20,08,10,17.30
2011,08,20,08,11,17.40
2011,08,20,08,12,17.40
2011,08,20,08,13,17.40
2011,08,20,08,14,17.50
2011,08,20,08,15,17.60
2011,08,20,08,16,17.70
2011,08,20,08,17,17.80
2011,08,20,08,18,17.80
2011,08,20,08,19,17.90
2011,08,20,08,20,17.90
2011,08,20,08,21,18.00
2011,08,20,08,22,18.00
2011,08,20,08,23,18.00
2011,08,20,08,24,18.00
2011,08,20,08,25,18.00
2011,08,20,08,26,18.10
2011,08,20,08,27,18.10
2011,08,20,08,28,18.20
2011,08,20,08,29,18.20
2011,08,20,08,30,18.30
2011,08,20,08,31,18.30
2011,08,20,08,32,18.40
2011,08,20,08,33,18.50
2011,08,20,08,34,18.60
2011,08,20,08,35,18.70
2011,08,20,08,36,18.70
2011,08,20,08,37,18.80
2011,08,20,08,38,18.80
2011,08,20,08,39,18.90
2011,08,20,08,40,18.90
2011,08,20,08,41,19.00
2011,08,20,08,42,19.10
2011,08,20,08,43,19.20
2011,08,20,08,44,19.30
2011,08,20,08,45,19.30
2011,08,20,08,46,19.40
2011,08,20,08,47,19.40
2011,08,20,08,48,19.30
2011,08,20,08,49,19.20
2011,08,20,08,50,19.20
2011,08,20,08,51,19.10
2011,08,20,08,52,19.00
2011,08,20,08,53,18.90
2011,08,20,08,54,18.80
2011,08,20,08,55,18.80
2011,08,20,08,56,18.80
2011,08,20,08,57,18.80
2011,08,20,08,58,18.80
2011,08,20,08,59,18.80
2011,08,20,09,00,18.70
2011,08,20,09,01,18.70
2011,08,20,09,02,18.70
2011,08,20,09,03,18.70
2011,08,20,09,04,18.60
2011,08,20,09,05,18.60
2011,08,20,09,06,18.60
2011,08,20,09,07,18.60
2011,08,20,09,08,18.60
2011,08,20,09,09,18.60
2011,08,20,09,10,18.60
2011,08,20,09,11,18.60
2011,08,20,09,12,18.60
2011,08,20,09,13,18.70
2011,08,20,09,14,18.70
2011,08,20,09,15,18.80
2011,08,20,09,16,18.80
2011,08,20,09,17,18.90
2011,08,20,09,18,18.90
2011,08,20,09,19,19.00
2011,08,20,09,20,19.10
2011,08,20,09,21,19.20
2011,08,20,09,22,19.30
2011,08,20,09,23,19.40
2011,08,20,09,24,19.50
2011,08,20,09,25,19.60
2011,08,20,09,26,19.70
2011,08,20,09,27,19.80
2011,08,20,09,28,19.80
2011,08,20,09,29,19.90
2011,08,20,09,30,19.90
2011,08,20,09,31,19.90
2011,08,20,09,32,19.90
2011,08,20,09,33,20.00
2011,08,20,09,34,20.00
2011,08,20,09,35,20.00
2011,08,20,09,36,20.10
2011,08,20,09,37,20.10
2011,08,20,09,38,20.10
2011,08,20,09,39,20.10
2011,08,20,09,40,20.10
2011,08,20,09,41,20.20
2011,08,20,09,42,20.20
2011,08,20,09,43,20.20
2011,08,20,09,44,20.20
2011,08,20,09,45,20.30
2011,08,20,09,46,20.30
2011,08,20,09,47,20.50
2011,08,20,09,48,20.60
2011,08,20,09,49,20.70
2011,08,20,09,50,20.80
2011,08,20,09,51,20.80
2011,08,20,09,52,20.80
2011,08,20,09,53,20.80
2011,08,20,09,54,20.80
2011,08,20,09,55,20.70
2011,08,20,09,56,20.70
2011,08,20,09,57,20.70
2011,08,20,09,58,20.70
2011,08,20,09,59,20.80
2011,08,20,10,00,20.80
2011,08,20,10,01,20.90
2011,08,20,10,02,21.00
2011,08,20,10,03,21.10
2011,08,20,10,04,21.20
2011,08,20,10,05,21.30
2011,08,20,10,06,21.40
2011,08,20,10,07,21.60
2011,08,20,10,08,21.70
2011,08,20,10,09,21.80
2011,08,20,10,10,21.80
2011,08,20,10,11,21.90
2011,08,20,10,12,22.00
2011,08,20,10,13,22.10
2011,08,20,10,14,22.10
2011,08,20,10,15,22.10
2011,08,20,10,16,22.10
2011,08,20,10,17,22.00
2011,08,20,10,18,22.00
2011,08,20,10,19,21.90
2011,08,20,10,20,21.80
2011,08,20,10,21,21.80
2011,08,20,10,22,21.80
2011,08,20,10,23,21.80
2011,08,20,10,24,21.90
2011,08,20,10,25,22.00
2011,08,20,10,26,22.10
2011,08,20,10,27,22.20
2011,08,20,10,28,22.20
2011,08,20,10,29,22.20
2011,08,20,10,30,22.20
2011,08,20,10,31,22.40
2011,08,20,10,32,22.40
2011,08,20,10,33,22.40
2011,08,20,10,34,22.50
2011,08,20,10,35,22.50
2011,08,20,10,36,22.60
2011,08,20,10,37,22.60
2011,08,20,10,38,22.60
2011,08,20,10,39,22.60
2011,08,20,10,40,22.60
2011,08,20,10,41,22.70
2011,08,20,10,42,22.70
2011,08,20,10,43,22.80
2011,08,20,10,44,22.80
2011,08,20,10,45,22.80
2011,08,20,10,46,22.80
2011,08,20,10,47,22.80
2011,08,20,10,48,22.70
2011,08,20,10,49,22.70
2011,08,20,10,50,22.80
2011,08,20,10,51,22.80
2011,08,20,10,52,22.80
2011,08,20,10,53,22.90
2011,08,20,10,54,22.90
2011,08,20,10,55,23.00
2011,08,20,10,56,23.10
2011,08,20,10,57,23.10
2011,08,20,10,58,23.10
2011,08,20,10,59,23.20
2011,08,20,11,00,23.30
2011,08,20,11,01,23.40
2011,08,20,11,02,23.50
2011,08,20,11,03,23.50
2011,08,20,11,04,23.50
2011,08,20,11,05,23.50
2011,08,20,11,06,23.50
2011,08,20,11,07,23.50
2011,08,20,11,08,23.50
2011,08,20,11,09,23.50
2011,08,20,11,10,23.60
2011,08,20,11,11,23.60
2011,08,20,11,12,23.60
2011,08,20,11,13,23.60
2011,08,20,11,14,23.50
2011,08,20,11,15,23.50
2011,08,20,11,16,23.50
2011,08,20,11,17,23.50
2011,08,20,11,18,23.60
2011,08,20,11,19,23.70
2011,08,20,11,20,23.80
2011,08,20,11,21,23.90
2011,08,20,11,22,24.00
2011,08,20,11,23,24.10
2011,08,20,11,24,24.20
2011,08,20,11,25,24.30
2011,08,20,11,26,24.40
2011,08,20,11,27,24.40
2011,08,20,11,28,24.40
2011,08,20,11,29,24.30
2011,08,20,11,30,24.30
2011,08,20,11,31,24.30
2011,08,20,11,32,24.30
2011,08,20,11,33,24.20
2011,08,20,11,34,24.20
2011,08,20,11,35,24.20
2011,08,20,11,36,24.20
2011,08,20,11,37,24.20
2011,08,20,11,38,24.20
2011,08,20,11,39,24.20
2011,08,20,11,40,24.20
2011,08,20,11,41,24.20
2011,08,20,11,42,24.20
2011,08,20,11,43,24.20
2011,08,20,11,44,24.10
2011,08,20,11,45,24.10
2011,08,20,11,46,24.10
2011,08,20,11,47,24.10
2011,08,20,11,48,24.20
2011,08,20,11,49,24.30
2011,08,20,11,50,24.40
2011,08,20,11,51,24.50
2011,08,20,11,52,24.60
2011,08,20,11,53,24.70
2011,08,20,11,54,24.70
2011,08,20,11,55,24.80
2011,08,20,11,56,24.80
2011,08,20,11,57,24.90
2011,08,20,11,58,24.90
2011,08,20,11,59,24.90
2011,08,20,12,00,24.90
2011,08,20,12,01,24.90
2011,08,20,12,02,25.00
2011,08,20,12,03,25.10
2011,08,20,12,04,25.20
2011,08,20,12,05,25.20
2011,08,20,12,06,25.20
2011,08,20,12,07,25.20
2011,08,20,12,08,25.30
2011,08,20,12,09,25.30
2011,08,20,12,10,25.30
2011,08,20,12,11,25.30
2011,08,20,12,12,25.30
2011,08,20,12,13,25.30
2011,08,20,12,14,25.30
2011,08,20,12,15,25.40
2011,08,20,12,16,25.50
2011,08,20,12,17,25.60
2011,08,20,12,18,25.70
2011,08,20,12,19,25.80
2011,08,20,12,20,25.90
2011,08,20,12,21,25.90
2011,08,20,12,22,25.90
2011,08,20,12,23,25.90
2011,08,20,12,24,25.90
2011,08,20,12,25,25.90
2011,08,20,12,26,25.90
2011,08,20,12,27,25.90
2011,08,20,12,28,25.90
2011,08,20,12,29,25.90
2011,08,20,12,30,25.90
2011,08,20,12,31,25.90
2011,08,20,12,32,26.00
2011,08,20,12,33,26.00
2011,08,20,12,34,25.90
2011,08,20,12,35,25.90
2011,08,20,12,36,25.90
2011,08,20,12,37,25.90
2011,08,20,12,38,25.90
2011,08,20,12,39,25.90
2011,08,20,12,40,25.90
2011,08,20,12,41,25.90
2011,08,20,12,42,25.90
2011,08,20,12,43,26.00
2011,08,20,12,44,26.00
2011,08,20,12,45,26.10
2011,08,20,12,46,26.10
2011,08,20,12,47,26.10
2011,08,20,12,48,26.20
2011,08,20,12,49,26.30
2011,08,20,12,50,26.30
2011,08,20,12,51,26.30
2011,08,20,12,52,26.40
2011,08,20,12,53,26.30
2011,08,20,12,54,26.30
2011,08,20,12,55,26.20
2011,08,20,12,56,26.10
2011,08,20,12,57,26.10
2011,08,20,12,58,26.00
2011,08,20,12,59,26.10
2011,08,20,13,00,26.10
2011,08,20,13,01,26.20
2011,08,20,13,02,26.20
2011,08,20,13,03,26.20
2011,08,20,13,04,26.20
2011,08,20,13,05,26.10
2011,08,20,13,06,26.10
2011,08,20,13,07,26.10
2011,08,20,13,08,26.20
2011,08,20,13,09,26.30
2011,08,20,13,10,26.40
2011,08,20,13,11,26.50
2011,08,20,13,12,26.60
2011,08,20,13,13,26.70
2011,08,20,13,14,26.80
2011,08,20,13,15,27.00
2011,08,20,13,16,27.10
2011,08,20,13,17,27.20
2011,08,20,13,18,27.30
2011,08,20,13,19,27.50
2011,08,20,13,20,27.50
2011,08,20,13,21,27.40
2011,08,20,13,22,27.30
2011,08,20,13,23,27.10
2011,08,20,13,24,26.90
2011,08,20,13,25,26.80
2011,08,20,13,26,26.60
2011,08,20,13,27,26.50
2011,08,20,13,28,26.30
2011,08,20,13,29,26.20
2011,08,20,13,30,26.20
2011,08,20,13,31,26.20
2011,08,20,13,32,26.10
2011,08,20,13,33,25.90
2011,08,20,13,34,25.90
2011,08,20,13,35,25.80
2011,08,20,13,36,25.70
2011,08,20,13,37,25.70
2011,08,20,13,38,25.80
2011,08,20,13,39,25.80
2011,08,20,13,40,25.90
2011,08,20,13,41,25.90
2011,08,20,13,42,26.00
2011,08,20,13,43,26.00
2011,08,20,13,44,25.90
2011,08,20,13,45,25.90
2011,08,20,13,46,26.00
2011,08,20,13,47,26.10
2011,08,20,13,48,26.10
2011,08,20,13,49,26.20
2011,08,20,13,50,26.40
2011,08,20,13,51,26.50
2011,08,20,13,52,26.40
2011,08,20,13,53,26.30
2011,08,20,13,54,26.20
2011,08,20,13,55,26.20
2011,08,20,13,56,26.10
2011,08,20,13,57,26.10
2011,08,20,13,58,26.10
2011,08,20,13,59,26.10
2011,08,20,14,00,26.20
2011,08,20,14,01,26.20
2011,08,20,14,02,26.20
2011,08,20,14,03,26.30
2011,08,20,14,04,26.40
2011,08,20,14,05,26.50
2011,08,20,14,06,26.50
2011,08,20,14,07,26.50
2011,08,20,14,08,26.40
2011,08,20,14,09,26.50
2011,08,20,14,10,26.50
2011,08,20,14,11,26.50
2011,08,20,14,12,26.50
2011,08,20,14,13,26.50
2011,08,20,14,14,26.50
2011,08,20,14,15,26.40
2011,08,20,14,16,26.50
2011,08,20,14,17,26.50
2011,08,20,14,18,26.60
2011,08,20,14,19,26.70
2011,08,20,14,20,26.80
2011,08,20,14,21,26.70
2011,08,20,14,22,26.70
2011,08,20,14,23,26.60
2011,08,20,14,24,26.60
2011,08,20,14,25,26.60
2011,08,20,14,26,26.60
2011,08,20,14,27,26.70
2011,08,20,14,28,26.70
2011,08,20,14,29,26.80
2011,08,20,14,30,26.80
2011,08,20,14,31,26.80
2011,08,20,14,32,26.90
2011,08,20,14,33,26.90
2011,08,20,14,34,26.90
2011,08,20,14,35,26.80
2011,08,20,14,36,26.70
2011,08,20,14,37,26.60
2011,08,20,14,38,26.60
2011,08,20,14,39,26.70
2011,08,20,14,40,26.70
2011,08,20,14,41,26.70
2011,08,20,14,42,26.70
2011,08,20,14,43,26.80
2011,08,20,14,44,26.80
2011,08,20,14,45,26.80
2011,08,20,14,46,26.80
2011,08,20,14,47,26.80
2011,08,20,14,48,26.80
2011,08,20,14,49,26.80
2011,08,20,14,50,26.90
2011,08,20,14,51,26.80
2011,08,20,14,52,26.80
2011,08,20,14,53,26.80
2011,08,20,14,54,26.90
2011,08,20,14,55,27.00
2011,08,20,14,56,27.00
2011,08,20,14,57,27.10
2011,08,20,14,58,27.20
2011,08,20,14,59,27.30
2011,08,20,15,00,27.30
2011,08,20,15,01,27.30
2011,08,20,15,02,27.20
2011,08,20,15,03,27.20
2011,08,20,15,04,27.20
2011,08,20,15,05,27.20
2011,08,20,15,06,27.20
2011,08,20,15,07,27.20
2011,08,20,15,08,27.20
2011,08,20,15,09,27.20
2011,08,20,15,10,27.20
2011,08,20,15,11,27.10
2011,08,20,15,12,27.10
2011,08,20,15,13,27.10
2011,08,20,15,14,27.10
2011,08,20,15,15,27.10
2011,08,20,15,16,27.20
2011,08,20,15,17,27.30
2011,08,20,15,18,27.30
2011,08,20,15,19,27.30
2011,08,20,15,20,27.30
2011,08,20,15,21,27.40
2011,08,20,15,22,27.40
2011,08,20,15,23,27.40
2011,08,20,15,24,27.30
2011,08,20,15,25,27.40
2011,08,20,15,26,27.40
2011,08,20,15,27,27.30
2011,08,20,15,28,27.30
2011,08,20,15,29,27.30
2011,08,20,15,30,27.20
2011,08,20,15,31,27.20
2011,08,20,15,32,27.20
2011,08,20,15,33,27.20
2011,08,20,15,34,27.20
2011,08,20,15,35,27.20
2011,08,20,15,36,27.20
2011,08,20,15,37,27.20
2011,08,20,15,38,27.20
2011,08,20,15,39,27.20
2011,08,20,15,40,27.10
2011,08,20,15,41,27.10
2011,08,20,15,42,27.10
2011,08,20,15,43,27.10
2011,08,20,15,44,27.10
2011,08,20,15,45,27.20
2011,08,20,15,46,27.20
2011,08,20,15,47,27.30
2011,08,20,15,48,27.30
2011,08,20,15,49,27.30
2011,08,20,15,50,27.30
2011,08,20,15,51,27.20
2011,08,20,15,52,27.20
2011,08,20,15,53,27.20
2011,08,20,15,54,27.20
2011,08,20,15,55,27.20
2011,08,20,15,56,27.20
2011,08,20,15,57,27.20
2011,08,20,15,58,27.10
2011,08,20,15,59,27.10
2011,08,20,16,00,27.20
2011,08,20,16,01,27.20
2011,08,20,16,02,27.20
2011,08,20,16,03,27.10
2011,08,20,16,04,27.10
2011,08,20,16,05,27.10
2011,08,20,16,06,27.20
2011,08,20,16,07,27.20
2011,08,20,16,08,27.20
2011,08,20,16,09,27.20
2011,08,20,16,10,27.30
2011,08,20,16,11,27.30
2011,08,20,16,12,27.30
2011,08,20,16,13,27.30
2011,08,20,16,14,27.30
2011,08,20,16,15,27.30
2011,08,20,16,16,27.40
2011,08,20,16,17,27.40
2011,08,20,16,18,27.40
2011,08,20,16,19,27.40
2011,08,20,16,20,27.40
2011,08,20,16,21,27.30
2011,08,20,16,22,27.30
2011,08,20,16,23,27.20
2011,08,20,16,24,27.20
2011,08,20,16,25,27.10
2011,08,20,16,26,27.10
2011,08,20,16,27,27.10
2011,08,20,16,28,27.10
2011,08,20,16,29,27.10
2011,08,20,16,30,27.10
2011,08,20,16,31,27.00
2011,08,20,16,32,27.00
2011,08,20,16,33,27.00
2011,08,20,16,34,27.10
2011,08,20,16,35,27.20
2011,08,20,16,36,27.30
2011,08,20,16,37,27.40
2011,08,20,16,38,27.40
2011,08,20,16,39,27.50
2011,08,20,16,40,27.50
2011,08,20,16,41,27.60
2011,08,20,16,42,27.60
2011,08,20,16,43,27.70
2011,08,20,16,44,27.70
2011,08,20,16,45,27.70
2011,08,20,16,46,27.70
2011,08,20,16,47,27.60
2011,08,20,16,48,27.60
2011,08,20,16,49,27.60
2011,08,20,16,50,27.60
2011,08,20,16,51,27.60
2011,08,20,16,52,27.60
2011,08,20,16,53,27.60
2011,08,20,16,54,27.60
2011,08,20,16,55,27.60
2011,08,20,16,56,27.60
2011,08,20,16,57,27.60
2011,08,20,16,58,27.60
2011,08,20,16,59,27.60
2011,08,20,17,00,27.60
2011,08,20,17,01,27.50
2011,08,20,17,02,27.50
2011,08,20,17,03,27.50
2011,08,20,17,04,27.50
2011,08,20,17,05,27.50
2011,08,20,17,06,27.50
2011,08,20,17,07,27.50
2011,08,20,17,08,27.50
2011,08,20,17,09,27.50
2011,08,20,17,10,27.40
2011,08,20,17,11,27.40
2011,08,20,17,12,27.40
2011,08,20,17,13,27.30
2011,08,20,17,14,27.30
2011,08,20,17,15,27.30
2011,08,20,17,16,27.30
2011,08,20,17,17,27.30
2011,08,20,17,18,27.20
2011,08,20,17,19,27.20
2011,08,20,17,20,27.20
2011,08,20,17,21,27.20
2011,08,20,17,22,27.20